Powrót do katalogu

FENGYUN 1C DEB

AktywnySSO
NORAD 33690·DEBRIS·🇨🇳 China

Wystrzelony May 10, 1999 z Taiyuan Satellite Launch Center

Loading…

Następne Przeloty (najbliższe 24 godziny)

TLE

ŚwieżeSource: Space-Track

Epoka: Sep 14, 2026, 17:52 UTC

1 33690U 99025DGB 26257.74465409  .00004505  00000-0  10369-2 0  9992
2 33690  98.6178   8.9535 0028302 284.6550  75.1509 14.55654015972301

Śledź FENGYUN 1C DEB w czasie rzeczywistym z AllMySat

Download on the App Store